OPS 4682 DEB, 38360

Orbit data source: Space-Track

OPS 4682 DEB, 38360 is space debris in LEO originally from a launch on Sat, 03 Apr 1965 UTC launched from the Air Force Western Test Range (AFWTR). Debris objects in space refer to the collection of defunct objects orbiting the Earth. Examples of debris include non-operational satellites, rocket bodies, and fragments generated from explosions, collisions, or faulty payload assembly.

Loading next visibility...
Identifier
38360, 1965-027BM
Orbit
LEO
Country
Flag of USUS
Related business
Manufacturer
Unknown
Mission
Spacecraft
Bus & Motor
Unknown
Mass
Unknown
Launch date (UTC)
1965-04-03 (61 years ago)
Launch vehicle
Unknown
Launch site
Air Force Western Test Range (AFWTR)
Object type
Payload
Rocket body
Debris
Shape & HBR
Unknown shape, 0.1 m
Radar Cross Section
Small (<0.1 m²)

Expand to show TLE details & history
Last TLE update: 2 days ago

TLE from 2 days ago
0 OPS 4682 DEB
1 38360U 65027BM  26102.96509400 -.00000065  00000-0 -23974-3 0  9995
2 38360  90.2428   3.3906 0035935  40.5421 319.8368 13.00788420656344
Epoch: 2026-04-12T23:09Z
TLE epoch observation values (Epoch: 2026-04-12T23:09:44.121Z)
Latitude
-0.00004°
Longitude
174.79428°
Altitude
1,240.948 km
Speed
7.244 km/s
True Right ascension
00h 13m 33s
True Declination
0° 00' 00"
Sunlit
Object was in daylight at epoch
Visualization orbit readout
Latitude
Unknown
Longitude
Unknown
Altitude
Unknown
Speed
Unknown
Apparent Right ascension
Unknown
Apparent Declination
Unknown
Sunlit
N/A
Visualization observer readout
Local Sidereal Time
04:20:21
Azimuth
Unknown
Elevation
Unknown
Doppler factor
Unknown
Orbital elements
Apogee altitude
1,283.559 km
Perigee altitude
1,228.691 km
Semi-major axis
7,634.262 km
Eccentricity
0.00359
Inclination
90.2428°
RAAN
3.3906°
Arg. of periapsis
40.5421°
True anomaly
319.5703°
Mean anomaly
319.8368°
Eccentric anomaly
319.70364°
Mean motion
3.25381 °/min
Orbital period
110.64 mins
BSTAR
-0.00023974
Loading maneuver chart data...
Computing Atmospheric mass density...
Loading historical data...
Loading historical data...
Loading historical data...
Loading historical data...
Loading historical data...
Loading historical data...
Loading historical data...

Documentation

Showing up to 5 results
|